Cagliari, Italy

3:56 PM CEST on August 18, 2017 (GMT +0200)
Elmas Mil

Weather History for LIEE - May, 2014

Change the Weather History Date:

Saturday, May 10, 2014

  Actual Average Record
Temperature  
Mean Temperature 70 °F -  
Max Temperature 84 °F 75 °F 84 °F (2014)
Min Temperature 57 °F 56 °F 46 °F (2004)
Cooling Degree Days 6    
Growing Degree Days 20 (Base 50)    
Moisture  
Dew Point 58 °F    
Average Humidity 72    
Maximum Humidity 100    
Minimum Humidity 37    
Precipitation  
Precipitation 0.00 in 0.02 in - ()
Sea Level Pressure  
Sea Level Pressure 30.04 in    
Wind  
Wind Speed 11 mph ()    
Max Wind Speed 18 mph    
Max Gust Speed 24 mph    
Averages and records for this station are not official NWS values.
T = Trace of Precipitation, MM = Missing Value Source: Averaged Metar Reports

Daily Weather History Graph

Daily Weather History Graph

Search for Another Location

Airport or City:

Trip Planner

Search our weather history database for the weather conditions in past years. The results will help you decide how hot, cold, wet, or windy it might be!

Date:

Astronomy

May. 10, 2014 Rise Set
Actual Time 6:15 AM CEST 8:25 PM CEST
Civil Twilight 5:45 AM CEST 8:55 PM CEST
Nautical Twilight 5:09 AM CEST 9:31 PM CEST
Astronomical Twilight 4:29 AM CEST 10:11 PM CEST
Moon 4:06 PM CEST (5/10) 3:38 AM CEST (5/10)
Length of Visible Light 15h 09m
Length of Day
14h 10m
Waxing Gibbous, 80% of the Moon is Illuminated
May 10
Waxing Gibbous
May 14
Full
May 21
Last Quarter
May 28
New
Jun 5
First Quarter

Hourly Weather History & Observations

Time (CEST) Temp. Heat Index Dew Point Humidity Pressure Visibility Wind Dir Wind Speed Gust Speed Precip Events Conditions
12:20 AM 60.8 °F - 59.0 °F 94% 30.06 in - NNW 11.5 mph - N/A   Clear
12:50 AM 60.8 °F - 59.0 °F 94% 30.06 in - NNW 11.5 mph - N/A   Clear
1:20 AM 59.0 °F - 59.0 °F 100% 30.06 in - NNW 12.7 mph - N/A   Clear
1:50 AM 59.0 °F - 59.0 °F 100% 30.06 in - NNW 11.5 mph - N/A   Clear
2:20 AM 59.0 °F - 59.0 °F 100% 30.06 in - NNW 9.2 mph - N/A   Clear
2:50 AM 59.0 °F - 59.0 °F 100% 30.04 in - NNW 10.4 mph - N/A   Clear
3:20 AM 60.8 °F - 59.0 °F 94% 30.04 in - NNW 12.7 mph - N/A   Clear
3:50 AM 60.8 °F - 59.0 °F 94% 30.04 in - NNW 13.8 mph - N/A   Clear
4:20 AM 59.0 °F - 59.0 °F 100% 30.04 in - NNW 12.7 mph - N/A   Clear
4:50 AM 59.0 °F - 59.0 °F 100% 30.04 in - NNW 13.8 mph - N/A   Clear
5:20 AM 59.0 °F - 57.2 °F 94% 30.04 in - NW 9.2 mph - N/A   Clear
5:50 AM 59.0 °F - 57.2 °F 94% 30.04 in - NW 9.2 mph - N/A   Clear
6:20 AM 57.2 °F - 57.2 °F 100% 30.04 in - NW 8.1 mph - N/A   Clear
6:50 AM 57.2 °F - 57.2 °F 100% 30.04 in - NW 8.1 mph - N/A   Clear
7:20 AM 59.0 °F - 57.2 °F 94% 30.06 in - NW 8.1 mph - N/A   Clear
7:50 AM 59.0 °F - 59.0 °F 100% 30.06 in - NW 9.2 mph - N/A   Clear
8:20 AM 62.6 °F - 59.0 °F 88% 30.06 in - NW 11.5 mph - N/A   Clear
8:50 AM 64.4 °F - 60.8 °F 88% 30.06 in - NNW 12.7 mph - N/A   Clear
9:20 AM 68.0 °F - 60.8 °F 78% 30.06 in - NNW 13.8 mph - N/A   Clear
9:50 AM 68.0 °F - 60.8 °F 78% 30.06 in - NNW 13.8 mph - N/A   Clear
10:20 AM 71.6 °F - 60.8 °F 69% 30.06 in - NNW 11.5 mph - N/A   Clear
10:50 AM 73.4 °F - 60.8 °F 65% 30.06 in - NNW 11.5 mph - N/A   Clear
11:20 AM 77.0 °F - 60.8 °F 57% 30.06 in - NW 11.5 mph - N/A   Clear
11:50 AM 78.8 °F - 59.0 °F 51% 30.06 in - NNW 11.5 mph - N/A   Clear
12:20 PM 78.8 °F - 57.2 °F 47% 30.06 in - NNW 13.8 mph - N/A   Clear
1:20 PM 82.4 °F 82.0 °F 57.2 °F 42% 30.04 in - NW 11.5 mph - N/A   Clear
1:50 PM 82.4 °F 82.0 °F 57.2 °F 42% 30.04 in - NW 15.0 mph - N/A   Clear
2:20 PM 82.4 °F 82.0 °F 57.2 °F 42% 30.04 in - NNW 11.5 mph 24.2 mph N/A   Clear
2:50 PM 84.2 °F 83.8 °F 59.0 °F 42% 30.04 in - North 12.7 mph - N/A   Clear
3:20 PM 84.2 °F 83.5 °F 57.2 °F 40% 30.01 in - NNW 12.7 mph - N/A   Clear
3:50 PM 84.2 °F 83.0 °F 55.4 °F 37% 30.01 in - NNW 11.5 mph - N/A   Clear
4:20 PM 84.2 °F 83.0 °F 55.4 °F 37% 30.01 in - NNW 17.3 mph - N/A   Clear
4:50 PM 84.2 °F 83.0 °F 55.4 °F 37% 30.01 in - NNW 18.4 mph - N/A   Clear
5:20 PM 82.4 °F 81.7 °F 55.4 °F 39% 30.01 in - NNW 17.3 mph - N/A   Clear
5:50 PM 80.6 °F 80.3 °F 53.6 °F 39% 30.01 in - NNW 16.1 mph - N/A   Clear
6:20 PM 78.8 °F - 57.2 °F 47% 30.01 in - NNW 16.1 mph - N/A   Clear
6:50 PM 77.0 °F - 57.2 °F 50% 30.01 in - NNW 15.0 mph - N/A   Clear
7:20 PM 75.2 °F - 57.2 °F 53% 30.01 in - NNW 15.0 mph - N/A   Clear
7:50 PM 71.6 °F - 57.2 °F 60% 30.01 in - NNW 16.1 mph - N/A   Clear
8:20 PM 69.8 °F - 59.0 °F 68% 30.04 in - NNW 13.8 mph - N/A   Clear
8:50 PM 68.0 °F - 59.0 °F 73% 30.04 in - North 11.5 mph - N/A   Clear
9:20 PM 66.2 °F - 57.2 °F 73% 30.04 in - North 12.7 mph - N/A   Clear
9:50 PM 66.2 °F - 57.2 °F 73% 30.04 in - NNW 12.7 mph - N/A   Clear
10:20 PM 66.2 °F - 57.2 °F 73% 30.06 in - NW 9.2 mph - N/A   Clear
10:50 PM 64.4 °F - 59.0 °F 83% 30.06 in - NW 5.8 mph - N/A   Clear
11:20 PM 64.4 °F - 59.0 °F 83% 30.06 in - NW 6.9 mph - N/A   Clear
11:50 PM 64.4 °F - 59.0 °F 83% 30.04 in - WNW 6.9 mph - N/A   Clear